This is the latest recevied weather packets stored in our database for station/object KE4LOJ. If no packets are shown the sender has not sent any weather packets the latest 10 day(s).
| Time | Temp. | Humidity | Pressure | Rain* | Wind** | Luminosity | Snow |
|---|---|---|---|---|---|---|---|
| 1777935467 | 23.89° C | 61% | 1015.8 hPa | 0 mm | - | 38 W/m² | - |
| 1777935163 | 23.89° C | 60% | 1015.7 hPa | 0 mm | - | 40 W/m² | - |
| 1777934860 | 23.89° C | 60% | 1016 hPa | 0 mm | - | 88 W/m² | - |
| 1777934557 | 23.89° C | 60% | 1016 hPa | 0 mm | - | 56 W/m² | - |
| 1777934253 | 23.89° C | 59% | 1015.8 hPa | 0 mm | - | 113 W/m² | - |
| 1777933949 | 23.89° C | 60% | 1015.8 hPa | 0 mm | - | 61 W/m² | - |
| 1777933646 | 24.44° C | 59% | 1015.9 hPa | 0 mm | - | 149 W/m² | - |
| 1777933343 | 25° C | 57% | 1015.7 hPa | 0 mm | - | 218 W/m² | - |
| 1777933041 | 24.44° C | 58% | 1015.9 hPa | 0 mm | - | 240 W/m² | - |
| 1777932737 | 24.44° C | 58% | 1015.9 hPa | 0 mm | - | 268 W/m² | - |
| 1777932434 | 24.44° C | 58% | 1015.8 hPa | 0 mm | - | 74 W/m² | - |
| 1777932132 | 24.44° C | 57% | 1015.7 hPa | 0 mm | - | 293 W/m² | - |
| 1777931828 | 25° C | 56% | 1015.9 hPa | 0 mm | - | 325 W/m² | - |
| 1777931525 | 25° C | 57% | 1015.9 hPa | 0 mm | - | 298 W/m² | - |
| 1777931220 | 24.44° C | 57% | 1016 hPa | 0 mm | - | 324 W/m² | - |
| 1777930917 | 24.44° C | 57% | 1015.9 hPa | 0 mm | - | 267 W/m² | - |
| 1777930614 | 25° C | 56% | 1015.8 hPa | 0 mm | - | 166 W/m² | - |
| 1777930311 | 25.56° C | 55% | 1015.8 hPa | 0 mm | - | 297 W/m² | - |
| 1777930007 | 25° C | 55% | 1015.6 hPa | 0 mm | - | 401 W/m² | - |
| 1777929704 | 25° C | 55% | 1015.7 hPa | 0 mm | - | 426 W/m² | - |
| 1777929402 | 25° C | 56% | 1015.8 hPa | 0 mm | - | 273 W/m² | - |
| 1777929097 | 25° C | 56% | 1016 hPa | 0 mm | - | 244 W/m² | - |
| 1777928796 | 25° C | 55% | 1015.8 hPa | 0 mm | - | 175 W/m² | - |
| 1777928492 | 25° C | 56% | 1015.8 hPa | 0 mm | - | 150 W/m² | - |
| 1777928189 | 25° C | 54% | 1016 hPa | 0 mm | - | 479 W/m² | - |
* Rain latest hour (hover to see other rain measurements)
** Current wind speed in m/s (hover to see current wind gust speed)